When you browse on this site, cookies collect data to enhance your experience and personalize the content and advertising you see.
Visit our Privacy Policy to learn more. By continuing to use the site, you agree to this use of cookies and data.
  • In Switzerland
  • List of Countries
  • For 7 days
  • Water Temperature
  • Satellite Maps
  • Weather Map
  • Weather Widgets
  • user-avatar
    Login

    Hourly Weather Gold Coast

    Today, 12 December, Wednesday

    Time Temperature Precipitation Wind Pressure Humidity
    00:00 +20°C° 0 mm 2 mps 758 mmHg 91%
    01:00 +21°C° 0 mm 1 mps 757 mmHg 92%
    02:00 +21°C° 0 mm 1 mps 757 mmHg 93%
    03:00 +21°C° 0 mm 1 mps 757 mmHg 93%
    04:00 +20°C° 0 mm 1 mps 756 mmHg 93%
    05:00 +22°C° 0 mm 1 mps 756 mmHg 85%
    06:00 +24°C° 0 mm 1 mps 756 mmHg 77%
    07:00 +26°C° 0 mm 1 mps 757 mmHg 69%
    08:00 +28°C° 0 mm 1 mps 757 mmHg 60%
    09:00 +29°C° 0 mm 2 mps 756 mmHg 52%
    10:00 +31°C° 0 mm 2 mps 756 mmHg 44%
    11:00 +33°C° 0 mm 3 mps 756 mmHg 43%
    12:00 +33°C° 0 mm 3 mps 755 mmHg 43%
    13:00 +33°C° 0 mm 4 mps 755 mmHg 43%
    14:00 +32°C° 0 mm 4 mps 755 mmHg 46%
    15:00 +30°C° 0 mm 4 mps 754 mmHg 49%
    16:00 +29°C° 0 mm 4 mps 754 mmHg 52%
    17:00 +28°C° 0 mm 4 mps 754 mmHg 61%
    18:00 +26°C° 0 mm 4 mps 754 mmHg 70%
    19:00 +23°C° 0 mm 4 mps 754 mmHg 79%
    20:00 +22°C° 0 mm 4 mps 755 mmHg 82%
    21:00 +22°C° 0 mm 3 mps 755 mmHg 86%
    22:00 +21°C° 0 mm 3 mps 755 mmHg 89%
    23:00 +21°C° 0.2 mm 3 mps 755 mmHg 90%

    Tomorrow, 13 December, Thursday

    Time Temperature Precipitation Wind Pressure Humidity
    00:00 +21°C° 0.2 mm 3 mps 754 mmHg 91%
    01:00 +21°C° 0.2 mm 3 mps 754 mmHg 92%
    02:00 +21°C° 0.1 mm 3 mps 754 mmHg 92%
    03:00 +21°C° 0.1 mm 3 mps 754 mmHg 93%
    04:00 +21°C° 0.1 mm 4 mps 753 mmHg 93%
    05:00 +22°C° 0 mm 4 mps 753 mmHg 88%
    06:00 +23°C° 0 mm 4 mps 753 mmHg 82%
    07:00 +23°C° 0 mm 4 mps 753 mmHg 77%
    08:00 +27°C° 0 mm 4 mps 753 mmHg 66%
    09:00 +29°C° 0 mm 4 mps 753 mmHg 55%
    10:00 +33°C° 0 mm 5 mps 752 mmHg 44%
    11:00 +33°C° 0 mm 5 mps 752 mmHg 43%
    12:00 +34°C° 0 mm 6 mps 751 mmHg 42%
    13:00 +35°C° 0 mm 7 mps 750 mmHg 41%
    14:00 +34°C° 0 mm 8 mps 750 mmHg 46%
    15:00 +33°C° 0 mm 8 mps 749 mmHg 51%
    16:00 +31°C° 0 mm 9 mps 748 mmHg 56%
    17:00 +29°C° 0 mm 9 mps 748 mmHg 63%
    18:00 +27°C° 0 mm 8 mps 748 mmHg 70%
    19:00 +26°C° 0 mm 8 mps 749 mmHg 77%
    20:00 +26°C° 0.8 mm 8 mps 749 mmHg 81%
    21:00 +24°C° 0.8 mm 7 mps 750 mmHg 85%
    22:00 +24°C° 0.8 mm 7 mps 751 mmHg 90%
    23:00 +24°C° 0.9 mm 6 mps 751 mmHg 91%

    Day after tomorrow, 14 December, Friday

    Time Temperature Precipitation Wind Pressure Humidity
    00:00 +23°C° 0.9 mm 6 mps 750 mmHg 92%
    01:00 +23°C° 0.9 mm 6 mps 750 mmHg 93%
    02:00 +23°C° 0.2 mm 6 mps 749 mmHg 94%
    03:00 +23°C° 0.2 mm 6 mps 749 mmHg 94%
    04:00 +23°C° 0.2 mm 5 mps 749 mmHg 95%
    05:00 +25°C° 0 mm 5 mps 749 mmHg 93%
    06:00 +25°C° 0 mm 5 mps 749 mmHg 91%
    07:00 +26°C° 0 mm 6 mps 750 mmHg 89%
    08:00 +27°C° 0.1 mm 6 mps 750 mmHg 83%
    09:00 +28°C° 0.1 mm 6 mps 750 mmHg 77%
    10:00 +29°C° 0.1 mm 6 mps 750 mmHg 72%
    11:00 +32°C° 0.1 mm 6 mps 749 mmHg 65%
    12:00 +33°C° 0.1 mm 6 mps 749 mmHg 59%
    13:00 +34°C° 0.1 mm 7 mps 749 mmHg 52%
    14:00 +33°C° 0.2 mm 6 mps 748 mmHg 54%
    15:00 +33°C° 0.2 mm 6 mps 748 mmHg 56%
    16:00 +32°C° 0.2 mm 6 mps 748 mmHg 57%
    17:00 +30°C° 0.2 mm 6 mps 748 mmHg 64%
    18:00 +28°C° 0.2 mm 6 mps 749 mmHg 71%
    19:00 +27°C° 0.2 mm 6 mps 750 mmHg 78%
    20:00 +27°C° 0.1 mm 6 mps 750 mmHg 82%
    21:00 +26°C° 0.1 mm 6 mps 751 mmHg 85%
    22:00 +26°C° 0.1 mm 6 mps 751 mmHg 89%
    23:00 +26°C° 0.6 mm 5 mps 751 mmHg 90%

    15 December, Saturday

    Time Temperature Precipitation Wind Pressure Humidity
    00:00 +25°C° 0.6 mm 5 mps 751 mmHg 91%
    01:00 +25°C° 0.6 mm 5 mps 750 mmHg 92%
    02:00 +25°C° 1.1 mm 5 mps 751 mmHg 92%
    03:00 +25°C° 1.1 mm 4 mps 751 mmHg 92%
    04:00 +25°C° 1.1 mm 4 mps 751 mmHg 93%
    05:00 +25°C° 0.7 mm 5 mps 751 mmHg 91%
    06:00 +26°C° 0.7 mm 5 mps 752 mmHg 89%
    07:00 +26°C° 0.7 mm 6 mps 752 mmHg 87%
    08:00 +26°C° 1.2 mm 6 mps 752 mmHg 86%
    09:00 +27°C° 1.2 mm 6 mps 752 mmHg 85%
    10:00 +27°C° 1.2 mm 6 mps 752 mmHg 84%
    11:00 +27°C° 1.8 mm 6 mps 752 mmHg 85%
    12:00 +27°C° 1.8 mm 6 mps 752 mmHg 86%
    13:00 +27°C° 1.8 mm 7 mps 751 mmHg 86%
    14:00 +26°C° 0.8 mm 6 mps 751 mmHg 88%
    15:00 +24°C° 0.8 mm 6 mps 751 mmHg 90%
    16:00 +24°C° 0.8 mm 6 mps 751 mmHg 92%
    17:00 +24°C° 0 mm 6 mps 751 mmHg 92%
    18:00 +25°C° 0 mm 5 mps 752 mmHg 92%
    19:00 +25°C° 0 mm 5 mps 752 mmHg 91%
    20:00 +25°C° 0.1 mm 5 mps 752 mmHg 92%
    21:00 +25°C° 0.1 mm 5 mps 752 mmHg 93%
    22:00 +25°C° 0.1 mm 4 mps 753 mmHg 94%
    23:00 +25°C° 0.2 mm 5 mps 752 mmHg 95%

    16 December, Sunday

    Time Temperature Precipitation Wind Pressure Humidity
    00:00 +25°C° 0.2 mm 5 mps 752 mmHg 96%
    01:00 +25°C° 0.2 mm 5 mps 751 mmHg 96%
    02:00 +25°C° 0.2 mm 5 mps 751 mmHg 96%
    03:00 +24°C° 0.2 mm 6 mps 751 mmHg 96%
    04:00 +24°C° 0.2 mm 6 mps 751 mmHg 96%
    05:00 +24°C° 0.2 mm 6 mps 752 mmHg 95%
    06:00 +24°C° 0.2 mm 6 mps 752 mmHg 94%
    07:00 +24°C° 0.2 mm 6 mps 753 mmHg 93%
    08:00 +25°C° 0.3 mm 5 mps 753 mmHg 92%
    09:00 +26°C° 0.3 mm 5 mps 753 mmHg 90%
    10:00 +26°C° 0.3 mm 5 mps 753 mmHg 89%
    11:00 +26°C° 0.6 mm 5 mps 752 mmHg 89%
    12:00 +26°C° 0.6 mm 4 mps 752 mmHg 90%
    13:00 +26°C° 0.6 mm 4 mps 751 mmHg 91%
    14:00 +26°C° 0.7 mm 4 mps 751 mmHg 92%
    15:00 +26°C° 0.7 mm 5 mps 751 mmHg 92%
    16:00 +26°C° 0.7 mm 5 mps 750 mmHg 93%
    17:00 +24°C° 1.6 mm 6 mps 750 mmHg 94%
    18:00 +24°C° 1.6 mm 6 mps 750 mmHg 95%
    19:00 +24°C° 1.6 mm 6 mps 751 mmHg 96%
    20:00 +24°C° 3.4 mm 6 mps 750 mmHg 96%
    21:00 +24°C° 3.4 mm 6 mps 750 mmHg 96%
    22:00 +24°C° 3.4 mm 6 mps 750 mmHg 96%
    23:00 +24°C° 4.2 mm 7 mps 749 mmHg 95%

    17 December, Monday

    Time Temperature Precipitation Wind Pressure Humidity
    00:00 +24°C° 4.2 mm 7 mps 748 mmHg 95%
    01:00 +24°C° 4.2 mm 8 mps 747 mmHg 95%
    02:00 +24°C° 5 mm 8 mps 746 mmHg 95%
    03:00 +24°C° 5 mm 9 mps 746 mmHg 95%
    04:00 +24°C° 5 mm 10 mps 745 mmHg 95%
    05:00 +24°C° 9.9 mm 11 mps 745 mmHg 95%
    06:00 +24°C° 9.9 mm 12 mps 745 mmHg 95%
    07:00 +24°C° 9.9 mm 12 mps 745 mmHg 94%
    08:00 +23°C° 7.3 mm 13 mps 745 mmHg 94%
    09:00 +23°C° 7.3 mm 13 mps 744 mmHg 93%
    10:00 +23°C° 7.3 mm 14 mps 744 mmHg 93%
    11:00 +23°C° 4.7 mm 14 mps 744 mmHg 91%
    12:00 +23°C° 4.7 mm 14 mps 744 mmHg 89%
    13:00 +24°C° 4.7 mm 14 mps 744 mmHg 86%
    14:00 +24°C° 0.9 mm 13 mps 744 mmHg 85%
    15:00 +24°C° 0.9 mm 13 mps 744 mmHg 84%
    16:00 +24°C° 0.9 mm 12 mps 744 mmHg 82%
    17:00 +24°C° 0.8 mm 12 mps 744 mmHg 84%
    18:00 +24°C° 0.8 mm 11 mps 745 mmHg 86%
    19:00 +24°C° 0.8 mm 10 mps 746 mmHg 88%
    20:00 +24°C° 0.4 mm 10 mps 746 mmHg 88%
    21:00 +24°C° 0.4 mm 10 mps 746 mmHg 88%
    22:00 +24°C° 0.4 mm 9 mps 747 mmHg 89%
    23:00 +24°C° 0.3 mm 9 mps 747 mmHg 89%
    Show more